RH
67 71 68 68 67 71 73 75 73 76 75 74 73 69 62 53 51 53 56 60 67 74 80 81 68 63 61 76 79 81 67 64
65 69 68 64 80 81 76 79 81 79 76 78 80 75 69 59 55 58 62 65 68 72 80 80 73 69 66 66 84 82 83 62
68 69 67 64 62 65 66 76 84 84 82 82 80 75 67 58 55 57 64 73 76 77 79 76 73 68 59 58 88 80 87 73
68 62 65 67 66 69 70 70 72 75 77 79 78 73 61 53 52 58 66 72 74 78 83 85 76 67 60 57 64 76 86 83
76 71 65 61 61 64 70 73 73 69 68 71 70 63 58 54 54 57 66 75 81 83 84 85 86 84 70 61 65 70 78 86
76 76 70 67 66 65 66 64 60 60 60 64 64 60 59 56 54 52 62 67 73 82 81 79 77 77 79 79 69 72 74 85
75 74 69 69 75 72 72 71 70 70 70 71 71 70 69 68 64 62 63 74 80 81 80 78 79 77 80 83 83 72 73 82
79 78 76 74 75 85 84 86 87 85 85 85 80 75 74 75 74 72 74 78 81 85 84 80 78 80 83 83 83 77 71 77
84 82 87 87 87 93 91 86 78 91 90 85 85 86 81 78 78 76 73 72 77 85 90 92 88 86 86 83 85 79 74 69
86 86 85 89 88 88 91 86 84 84 82 81 81 80 91 94 91 87 83 83 84 91 96 97 94 94 89 84 84 83 80 74
90 90 85 90 86 88 88 88 86 87 85 83 86 87 89 93 96 98 100 100 98 97 99 100 100 99 98 95 91 88 86 82
96 94 91 87 83 82 80 80 79 75 74 75 76 73 70 78 84 92 97 100 100 100 100 100 100 100 100 100 98 93 91 90
92 89 83 81 87 74 58 57 60 65 68 74 54 51 57 66 62 59 58 59 75 96 89 88 92 87 100 96 97 93 87 84
58 57 59 61 56 43 43 43 35 37 35 35 37 39 46 55 53 49 46 65 75 70 81 88 83 83 94 92 91 84 83 81
37 36 35 34 33 32 33 35 34 34 35 39 45 48 50 49 49 49 57 67 66 78 92 84 88 87 87 89 90 94 90 73
42 38 32 30 28 26 28 33 36 38 36 34 35 37 47 56 56 55 61 72 81 82 76 77 82 97 94 91 95 95 93 87
32 30 29 27 25 24 24 28 34 37 38 38 42 48 49 51 53 53 57 66 65 66 66 72 80 93 98 100 99 94 86 92
30 26 25 24 23 26 27 29 36 40 41 44 46 48 48 45 42 42 47 50 39 30 35 60 75 80 82 82 96 97 97 97
26 24 28 26 25 25 24 25 28 37 50 41 40 36 38 38 38 38 33 29 25 24 26 37 43 54 80 79 63 71 88 98
24 27 24 22 22 23 23 27 32 36 34 33 36 44 42 38 36 31 28 26 26 26 26 29 41 44 54 87 89 90 90 91
Wind_Speed
22 21 19 19 18 17 16 14 13 11 10 9 8 7 6 6 6 6 6 6 6 6 6 7 6 7 8 7 7 5 2 5
22 20 17 15 16 15 15 14 12 11 11 9 7 7 7 7 8 8 8 8 8 7 8 8 8 9 10 10 10 9 7 8
20 20 18 16 15 15 14 13 12 11 11 10 10 10 9 9 9 10 10 10 9 9 10 11 11 12 12 13 12 12 11 12
18 20 19 18 16 16 16 15 15 13 13 12 12 11 11 11 11 12 12 13 12 11 11 12 13 14 14 14 16 15 14 14
20 20 20 20 19 17 16 15 14 13 13 13 13 12 13 13 13 14 14 15 15 15 15 15 15 16 18 16 16 18 18 17
18 18 20 20 19 17 15 14 14 14 14 14 14 15 15 16 16 16 16 17 18 18 18 18 18 19 20 19 19 21 21 20
18 17 19 18 18 16 15 14 14 13 13 13 14 17 18 17 19 18 19 19 20 21 22 21 22 23 22 23 23 23 23 22
20 17 16 16 16 12 11 10 13 13 11 12 15 17 18 18 19 20 22 23 24 25 26 25 26 26 27 26 25 24 25 25
22 19 16 14 15 13 8 5 3 8 9 9 12 16 21 22 21 21 22 23 25 28 29 29 29 28 30 29 27 26 26 27
23 23 17 13 9 10 12 7 7 5 5 6 8 11 17 21 23 25 25 25 26 28 31 33 32 31 32 32 32 32 32 31
23 24 19 15 10 10 9 6 3 2 3 4 5 6 7 10 15 20 20 21 24 27 27 28 28 31 33 34 36 37 38 35
22 24 20 17 14 13 11 10 9 8 9 11 12 12 12 11 12 13 15 15 17 17 19 21 24 25 29 26 28 33 35 32
26 26 22 21 17 14 9 9 9 10 11 11 14 16 15 16 16 17 17 18 16 16 19 23 23 24 23 21 24 29 34 32
26 24 21 19 16 13 11 9 11 12 12 12 15 16 15 14 16 18 18 17 16 17 16 15 17 18 14 20 6 10 16 27
25 23 21 20 17 14 11 8 10 12 15 15 16 15 15 16 17 18 17 16 16 16 15 17 17 20 16 10 5 4 6 15
22 20 20 18 15 15 15 13 10 11 13 16 17 15 14 14 16 16 15 14 14 15 17 18 17 17 20 11 18 21 8 11
23 20 18 16 14 12 10 9 9 9 9 12 14 15 14 14 16 18 18 15 17 18 19 17 16 16 15 13 15 17 21 10
22 19 16 12 11 11 11 9 8 9 10 10 10 9 10 13 15 16 16 17 18 20 22 20 17 16 12 7 7 8 10 13
19 16 14 12 10 9 9 9 10 9 6 7 9 11 10 11 12 11 14 16 16 17 20 21 21 20 21 25 24 15 14 17
17 15 13 9 9 9 9 7 7 6 8 10 10 9 8 10 8 13 15 14 16 17 19 20 19 20 23 20 16 13 15 14
Wind_Direction
180 178 179 182 180 180 182 186 188 189 192 195 204 214 220 226 226 222 221 219 224 233 246 252 249 237 225 231 238 240 226 203
183 182 183 179 181 184 189 189 194 195 201 206 216 230 237 239 235 234 233 237 242 249 254 258 260 260 251 243 253 245 239 225
184 185 187 188 186 188 192 190 197 202 207 214 220 230 240 245 244 243 241 245 254 264 265 267 267 260 259 252 263 252 249 240
187 196 195 194 195 194 193 194 200 207 215 224 229 235 243 249 250 246 246 248 254 255 262 271 272 269 268 263 256 257 255 255
189 196 200 205 206 205 202 204 210 216 224 232 238 241 244 247 249 248 248 254 261 262 266 270 278 282 281 275 263 261 260 255
190 195 198 204 209 210 210 213 220 228 236 242 245 249 250 250 249 247 247 251 257 259 264 271 281 286 286 284 278 272 265 257
192 192 195 200 207 213 221 227 232 238 245 254 256 255 258 261 259 254 250 252 254 257 260 265 269 280 284 284 284 276 270 267
192 191 189 188 194 194 208 229 247 252 261 268 264 260 259 259 262 262 263 262 262 261 261 265 271 277 279 280 283 281 275 266
195 187 190 190 194 194 199 193 256 239 259 277 277 267 264 265 265 267 268 269 272 267 266 264 268 271 274 277 278 274 272 267
192 187 182 180 175 201 208 173 166 179 235 278 305 303 277 275 279 281 283 282 276 271 270 269 267 270 273 277 279 276 269 263
173 177 176 168 157 139 155 157 164 127 48 27 10 340 330 303 289 290 288 290 285 285 284 279 273 276 275 277 278 275 275 270
148 157 156 152 152 142 126 108 85 62 46 31 23 19 10 2 353 345 340 336 327 309 298 296 287 290 281 276 268 271 271 262
136 140 140 147 137 127 110 92 74 57 46 32 17 8 359 359 358 356 352 346 338 337 332 332 329 326 314 301 288 278 264 257
121 120 124 123 124 107 94 89 60 44 24 18 9 7 3 357 348 341 337 332 335 336 338 330 328 328 314 317 304 301 281 266
117 114 111 107 103 101 88 74 40 15 8 3 3 358 356 355 348 344 341 334 327 325 329 333 321 320 314 295 308 288 316 290
123 114 108 101 90 75 58 49 33 12 2 356 355 357 359 353 354 353 347 338 343 348 343 339 329 320 327 317 308 300 297 300
123 116 105 94 81 70 63 46 21 2 357 351 353 358 353 353 350 352 351 346 336 331 329 325 321 315 321 320 318 322 311 296
129 123 110 100 85 77 61 43 19 360 351 345 347 345 345 343 346 346 344 347 352 348 341 330 316 299 294 311 355 329 326 320
136 130 115 103 89 73 48 27 12 350 357 349 339 340 342 347 345 348 349 344 342 341 339 333 329 322 305 291 285 274 296 314
139 126 117 107 91 66 41 30 21 1 343 336 332 328 325 330 320 321 324 325 324 325 329 326 320 318 310 299 294 300 303 294